• In Österreich
  • Länderverzeichnis
  • Für 7 Tage
  • Wassertemperatur
  • Satellitenkarten
  • Wetterkarte
  • News
  • Widgets
  • user-avatar
    Anmelden

    Stündliche Wetter Elbasan

    Heute, 18 Februar, Sonntag

    Zeit Temperatur Niederschläge Wind Luftdruck Luftfeuchtigkeit
    00:00 +8°C° 0 mm 1 m/S 738 mmHg 76%
    01:00 +7°C° 0 mm 2 m/S 738 mmHg 78%
    02:00 +7°C° 0 mm 2 m/S 737 mmHg 79%
    03:00 +7°C° 0 mm 2 m/S 737 mmHg 79%
    04:00 +7°C° 0 mm 1 m/S 737 mmHg 80%
    05:00 +7°C° 0 mm 1 m/S 737 mmHg 80%
    06:00 +6°C° 0 mm 2 m/S 737 mmHg 79%
    07:00 +8°C° 0 mm 1 m/S 737 mmHg 78%
    08:00 +9°C° 0 mm 1 m/S 736 mmHg 75%
    09:00 +11°C° 0 mm 1 m/S 736 mmHg 72%
    10:00 +12°C° 0 mm 1 m/S 736 mmHg 70%
    11:00 +12°C° 0 mm 1 m/S 736 mmHg 68%
    12:00 +13°C° 0 mm 2 m/S 736 mmHg 67%
    13:00 +13°C° 0 mm 2 m/S 735 mmHg 68%
    14:00 +13°C° 0 mm 2 m/S 735 mmHg 70%
    15:00 +13°C° 0 mm 2 m/S 735 mmHg 73%
    16:00 +12°C° 0 mm 1 m/S 735 mmHg 75%
    17:00 +11°C° 0 mm 1 m/S 735 mmHg 78%
    18:00 +11°C° 0 mm 1 m/S 735 mmHg 81%
    19:00 +10°C° 0 mm 1 m/S 735 mmHg 84%
    20:00 +10°C° 0,1 mm 1 m/S 735 mmHg 85%
    21:00 +10°C° 0,1 mm 1 m/S 735 mmHg 85%
    22:00 +9°C° 0,1 mm 1 m/S 735 mmHg 85%
    23:00 +8°C° 0,1 mm 2 m/S 735 mmHg 85%

    Morgen, 19 Februar, Montag

    Zeit Temperatur Niederschläge Wind Luftdruck Luftfeuchtigkeit
    00:00 +8°C° 0,1 mm 2 m/S 734 mmHg 85%
    01:00 +8°C° 0,1 mm 2 m/S 734 mmHg 85%
    02:00 +8°C° 0,2 mm 2 m/S 734 mmHg 85%
    03:00 +8°C° 0,2 mm 2 m/S 734 mmHg 85%
    04:00 +7°C° 0,2 mm 2 m/S 734 mmHg 85%
    05:00 +7°C° 0,2 mm 2 m/S 734 mmHg 85%
    06:00 +7°C° 0,2 mm 2 m/S 734 mmHg 85%
    07:00 +7°C° 0,2 mm 2 m/S 734 mmHg 85%
    08:00 +8°C° 0,2 mm 2 m/S 734 mmHg 81%
    09:00 +9°C° 0,2 mm 2 m/S 734 mmHg 78%
    10:00 +10°C° 0,2 mm 2 m/S 734 mmHg 74%
    11:00 +10°C° 0,2 mm 2 m/S 733 mmHg 72%
    12:00 +12°C° 0,2 mm 2 m/S 733 mmHg 70%
    13:00 +12°C° 0,2 mm 2 m/S 733 mmHg 68%
    14:00 +12°C° 0,4 mm 2 m/S 733 mmHg 70%
    15:00 +10°C° 0,4 mm 2 m/S 732 mmHg 73%
    16:00 +11°C° 0,4 mm 1 m/S 732 mmHg 76%
    17:00 +11°C° 0,4 mm 1 m/S 732 mmHg 79%
    18:00 +10°C° 0,4 mm 1 m/S 732 mmHg 81%
    19:00 +9°C° 0,4 mm 1 m/S 732 mmHg 84%
    20:00 +9°C° 0,3 mm 1 m/S 732 mmHg 85%
    21:00 +8°C° 0,3 mm 2 m/S 732 mmHg 85%
    22:00 +8°C° 0,3 mm 2 m/S 732 mmHg 86%
    23:00 +8°C° 0,5 mm 2 m/S 732 mmHg 86%

    übermorgen, 20 Februar, Dienstag

    Zeit Temperatur Niederschläge Wind Luftdruck Luftfeuchtigkeit
    00:00 +8°C° 0,5 mm 2 m/S 732 mmHg 87%
    01:00 +7°C° 0,5 mm 2 m/S 731 mmHg 87%
    02:00 +7°C° 0,6 mm 2 m/S 731 mmHg 87%
    03:00 +7°C° 0,6 mm 2 m/S 731 mmHg 87%
    04:00 +7°C° 0,6 mm 2 m/S 730 mmHg 87%
    05:00 +7°C° 0,7 mm 2 m/S 730 mmHg 86%
    06:00 +7°C° 0,7 mm 2 m/S 730 mmHg 86%
    07:00 +7°C° 0,7 mm 3 m/S 730 mmHg 86%
    08:00 +8°C° 0,4 mm 3 m/S 730 mmHg 83%
    09:00 +9°C° 0,4 mm 3 m/S 730 mmHg 80%
    10:00 +9°C° 0,4 mm 3 m/S 730 mmHg 78%
    11:00 +10°C° 0,3 mm 3 m/S 730 mmHg 77%
    12:00 +10°C° 0,3 mm 3 m/S 730 mmHg 77%
    13:00 +10°C° 0,3 mm 3 m/S 729 mmHg 76%
    14:00 +10°C° 0,4 mm 3 m/S 729 mmHg 77%
    15:00 +10°C° 0,4 mm 3 m/S 729 mmHg 78%
    16:00 +10°C° 0,4 mm 2 m/S 728 mmHg 79%
    17:00 +9°C° 0,5 mm 2 m/S 729 mmHg 81%
    18:00 +9°C° 0,5 mm 2 m/S 729 mmHg 83%
    19:00 +8°C° 0,5 mm 3 m/S 729 mmHg 85%
    20:00 +8°C° 0,3 mm 3 m/S 729 mmHg 85%
    21:00 +8°C° 0,3 mm 3 m/S 729 mmHg 86%
    22:00 +8°C° 0,3 mm 3 m/S 729 mmHg 86%
    23:00 +7°C° 0,1 mm 3 m/S 729 mmHg 86%

    21 Februar, Mittwoch

    Zeit Temperatur Niederschläge Wind Luftdruck Luftfeuchtigkeit
    00:00 +7°C° 0,1 mm 3 m/S 728 mmHg 86%
    01:00 +7°C° 0,1 mm 3 m/S 728 mmHg 86%
    02:00 +7°C° 0,2 mm 3 m/S 728 mmHg 86%
    03:00 +7°C° 0,2 mm 3 m/S 728 mmHg 85%
    04:00 +5°C° 0,2 mm 3 m/S 728 mmHg 85%
    05:00 +7°C° 0,2 mm 3 m/S 728 mmHg 85%
    06:00 +7°C° 0,2 mm 3 m/S 728 mmHg 85%
    07:00 +7°C° 0,2 mm 3 m/S 728 mmHg 84%
    08:00 +8°C° 0,4 mm 3 m/S 728 mmHg 81%
    09:00 +9°C° 0,4 mm 3 m/S 728 mmHg 77%
    10:00 +10°C° 0,4 mm 3 m/S 728 mmHg 74%
    11:00 +11°C° 0,4 mm 3 m/S 728 mmHg 72%
    12:00 +11°C° 0,4 mm 3 m/S 727 mmHg 70%
    13:00 +12°C° 0,4 mm 3 m/S 727 mmHg 68%
    14:00 +11°C° 0,7 mm 3 m/S 727 mmHg 71%
    15:00 +12°C° 0,7 mm 2 m/S 727 mmHg 73%
    16:00 +10°C° 0,7 mm 2 m/S 726 mmHg 76%
    17:00 +10°C° 1,2 mm 2 m/S 726 mmHg 80%
    18:00 +9°C° 1,2 mm 2 m/S 727 mmHg 84%
    19:00 +8°C° 1,2 mm 2 m/S 727 mmHg 88%
    20:00 +8°C° 1,2 mm 2 m/S 727 mmHg 88%
    21:00 +8°C° 1,2 mm 2 m/S 727 mmHg 88%
    22:00 +8°C° 1,2 mm 3 m/S 727 mmHg 89%
    23:00 +8°C° 1 mm 3 m/S 727 mmHg 89%

    22 Februar, Donnerstag

    Zeit Temperatur Niederschläge Wind Luftdruck Luftfeuchtigkeit
    00:00 +8°C° 1 mm 3 m/S 727 mmHg 89%
    01:00 +8°C° 1 mm 3 m/S 727 mmHg 89%
    02:00 +8°C° 0,3 mm 3 m/S 727 mmHg 88%
    03:00 +7°C° 0,3 mm 3 m/S 727 mmHg 88%
    04:00 +7°C° 0,3 mm 3 m/S 727 mmHg 87%
    05:00 +7°C° 0,1 mm 3 m/S 727 mmHg 87%
    06:00 +7°C° 0,1 mm 3 m/S 727 mmHg 87%
    07:00 +7°C° 0,1 mm 2 m/S 727 mmHg 86%
    08:00 +9°C° 0 mm 3 m/S 728 mmHg 82%
    09:00 +10°C° 0 mm 3 m/S 728 mmHg 77%
    10:00 +12°C° 0 mm 3 m/S 728 mmHg 73%
    11:00 +12°C° 0,1 mm 3 m/S 728 mmHg 70%
    12:00 +13°C° 0,1 mm 3 m/S 728 mmHg 67%
    13:00 +14°C° 0,1 mm 3 m/S 728 mmHg 64%
    14:00 +14°C° 0,2 mm 3 m/S 728 mmHg 65%
    15:00 +13°C° 0,2 mm 3 m/S 728 mmHg 67%
    16:00 +13°C° 0,2 mm 3 m/S 728 mmHg 69%
    17:00 +13°C° 0,2 mm 2 m/S 728 mmHg 74%
    18:00 +12°C° 0,2 mm 2 m/S 728 mmHg 78%
    19:00 +10°C° 0,2 mm 2 m/S 729 mmHg 83%
    20:00 +9°C° 0 mm 2 m/S 729 mmHg 84%
    21:00 +9°C° 0 mm 2 m/S 729 mmHg 84%
    22:00 +8°C° 0 mm 2 m/S 729 mmHg 85%
    23:00 +8°C° 0 mm 2 m/S 729 mmHg 85%

    23 Februar, Freitag

    Zeit Temperatur Niederschläge Wind Luftdruck Luftfeuchtigkeit
    00:00 +8°C° 0 mm 2 m/S 729 mmHg 86%
    01:00 +7°C° 0 mm 2 m/S 729 mmHg 86%
    02:00 +7°C° 0 mm 2 m/S 729 mmHg 86%
    03:00 +7°C° 0 mm 2 m/S 728 mmHg 86%
    04:00 +7°C° 0 mm 2 m/S 728 mmHg 86%
    05:00 +7°C° 0 mm 3 m/S 728 mmHg 86%
    06:00 +7°C° 0 mm 3 m/S 728 mmHg 85%
    07:00 +7°C° 0 mm 3 m/S 728 mmHg 85%
    08:00 +9°C° 0 mm 3 m/S 728 mmHg 78%
    09:00 +10°C° 0 mm 3 m/S 728 mmHg 72%
    10:00 +12°C° 0 mm 4 m/S 727 mmHg 65%
    11:00 +13°C° 0,1 mm 4 m/S 727 mmHg 63%
    12:00 +13°C° 0,1 mm 4 m/S 726 mmHg 61%
    13:00 +14°C° 0,1 mm 5 m/S 726 mmHg 60%
    14:00 +13°C° 0,6 mm 5 m/S 725 mmHg 62%
    15:00 +13°C° 0,6 mm 5 m/S 725 mmHg 65%
    16:00 +12°C° 0,6 mm 5 m/S 725 mmHg 68%
    17:00 +10°C° 1,2 mm 5 m/S 725 mmHg 74%
    18:00 +11°C° 1,2 mm 4 m/S 725 mmHg 81%
    19:00 +10°C° 1,2 mm 4 m/S 725 mmHg 87%
    20:00 +9°C° 0,6 mm 3 m/S 725 mmHg 89%
    21:00 +9°C° 0,6 mm 3 m/S 726 mmHg 91%
    22:00 +8°C° 0,6 mm 3 m/S 726 mmHg 92%
    23:00 +8°C° 0,3 mm 3 m/S 726 mmHg 92%
    Mehr zeigen